| time (UTC) | temp F | wind direction | speed knots | gust knots | rain 1hr in | rain 24hr in | rain mn in | humidity % | barometer mb |
| 20260504231829 | 52 | 100 | 7.0 | 0.0 | 0.00 | 0.00 | 0.00 | 58 | 1016.0 |
| 20260504230329 | 52 | 100 | 7.0 | 0.0 | 0.00 | 0.00 | 0.00 | 58 | 1016.0 |
| 20260504224829 | 54 | 100 | 7.0 | 0.0 | 0.00 | 0.00 | 0.00 | 54 | 1016.0 |
| 20260504223329 | 54 | 100 | 7.0 | 0.0 | 0.00 | 0.00 | 0.00 | 54 | 1016.0 |
| 20260504221852 | 54 | 100 | 7.0 | 0.0 | 0.00 | 0.00 | 0.00 | 54 | 1016.0 |
| 20260504220329 | 54 | 100 | 7.0 | 0.0 | 0.00 | 0.00 | 0.00 | 54 | 1016.0 |
| 20260504214829 | 54 | 100 | 7.0 | 0.0 | 0.00 | 0.00 | 0.00 | 58 | 1016.0 |
| 20260504213345 | 54 | 100 | 7.0 | 0.0 | 0.00 | 0.00 | 0.00 | 58 | 1016.0 |
| 20260504211829 | 55 | 100 | 5.2 | 0.0 | 0.00 | 0.00 | 0.00 | 55 | 1016.0 |
| 20260504210329 | 55 | 100 | 5.2 | 0.0 | 0.00 | 0.00 | 0.00 | 55 | 1016.0 |
| 20260504204829 | 57 | 100 | 4.3 | 0.0 | 0.00 | 0.00 | 0.00 | 48 | 1016.0 |
| 20260504203330 | 57 | 100 | 4.3 | 0.0 | 0.00 | 0.00 | 0.00 | 48 | 1016.0 |
| 20260504201829 | 54 | 0 | 0.0 | 0.0 | 0.00 | 0.00 | 0.00 | 51 | 1016.0 |
| 20260504200330 | 54 | 0 | 0.0 | 0.0 | 0.00 | 0.00 | 0.00 | 51 | 1016.0 |
| 20260504194829 | 59 | 130 | 4.3 | 0.0 | 0.00 | 0.00 | 0.00 | 42 | 1016.0 |
| 20260504193330 | 59 | 130 | 4.3 | 0.0 | 0.00 | 0.00 | 0.00 | 42 | 1016.0 |
| 20260504191829 | 54 | 180 | 1.7 | 0.0 | 0.00 | 0.00 | 0.00 | 51 | 1016.0 |
| 20260504190329 | 54 | 180 | 1.7 | 0.0 | 0.00 | 0.00 | 0.00 | 51 | 1016.0 |
| 20260504184829 | 59 | 190 | 1.7 | 0.0 | 0.00 | 0.00 | 0.00 | 42 | 1016.0 |
| 20260504183339 | 59 | 190 | 1.7 | 0.0 | 0.00 | 0.00 | 0.00 | 42 | 1016.0 |
| 20260504181829 | 66 | 220 | 1.7 | 0.0 | 0.00 | 0.00 | 0.00 | 32 | 1016.0 |
| 20260504180329 | 66 | 220 | 1.7 | 0.0 | 0.00 | 0.00 | 0.00 | 32 | 1016.0 |
| 20260504174829 | 70 | 240 | 4.3 | 0.0 | 0.00 | 0.00 | 0.00 | 29 | 1016.0 |
| 20260504173329 | 70 | 240 | 4.3 | 0.0 | 0.00 | 0.00 | 0.00 | 29 | 1016.0 |
| 20260504171829 | 73 | 240 | 5.2 | 0.0 | 0.00 | 0.00 | 0.00 | 23 | 1016.0 |
| 20260504170329 | 73 | 240 | 5.2 | 0.0 | 0.00 | 0.00 | 0.00 | 23 | 1016.0 |
| 20260504160330 | 75 | 260 | 5.2 | 0.0 | 0.00 | 0.00 | 0.00 | 21 | 1016.0 |
| 20260504150329 | 77 | 220 | 7.8 | 0.0 | 0.00 | 0.00 | 0.00 | 18 | 1016.0 |
| 20260504140330 | 77 | 280 | 7.0 | 0.0 | 0.00 | 0.00 | 0.00 | 18 | 1017.0 |
| 20260504130329 | 77 | 260 | 4.3 | 0.0 | 0.00 | 0.00 | 0.00 | 21 | 1017.0 |
| 20260504110329 | 75 | 310 | 6.1 | 0.0 | 0.00 | 0.00 | 0.00 | 24 | 1019.0 |
| 20260504100329 | 72 | 290 | 6.1 | 0.0 | 0.00 | 0.00 | 0.00 | 29 | 1019.0 |
| 20260504081829 | 66 | 290 | 5.2 | 0.0 | 0.00 | 0.00 | 0.00 | 35 | 1020.0 |
| 20260504080329 | 66 | 290 | 5.2 | 0.0 | 0.00 | 0.00 | 0.00 | 35 | 1020.0 |
| 20260504070330 | 66 | 0.9 | 0.0 | 0.00 | 0.00 | 0.00 | 37 | 1020.0 | |
| 20260504050339 | 50 | 100 | 7.0 | 0.0 | 0.00 | 0.00 | 0.00 | 62 | 1020.0 |
| 20260504044829 | 46 | 100 | 7.8 | 0.0 | 0.00 | 0.00 | 0.00 | 66 | 1020.0 |
| 20260504043329 | 46 | 100 | 7.8 | 0.0 | 0.00 | 0.00 | 0.00 | 66 | 1020.0 |
| 20260504041829 | 45 | 100 | 7.0 | 0.0 | 0.00 | 0.00 | 0.00 | 71 | 1020.0 |
| 20260504040329 | 45 | 100 | 7.0 | 0.0 | 0.00 | 0.00 | 0.00 | 71 | 1020.0 |
| 20260504034830 | 43 | 100 | 7.8 | 0.0 | 0.00 | 0.00 | 0.00 | 76 | 1020.0 |
| 20260504033329 | 43 | 100 | 7.8 | 0.0 | 0.00 | 0.00 | 0.00 | 76 | 1020.0 |
| 20260504031829 | 43 | 120 | 5.2 | 0.0 | 0.00 | 0.00 | 0.00 | 76 | 1019.0 |
| 20260504030448 | 43 | 120 | 5.2 | 0.0 | 0.00 | 0.00 | 0.00 | 76 | 1019.0 |
| 20260504024830 | 45 | 110 | 7.0 | 0.0 | 0.00 | 0.00 | 0.00 | 71 | 1019.0 |
| 20260504023329 | 45 | 110 | 7.0 | 0.0 | 0.00 | 0.00 | 0.00 | 71 | 1019.0 |
| 20260504021829 | 45 | 100 | 7.0 | 0.0 | 0.00 | 0.00 | 0.00 | 71 | 1019.0 |
| 20260504020329 | 45 | 100 | 7.0 | 0.0 | 0.00 | 0.00 | 0.00 | 71 | 1019.0 |
| 20260504014829 | 46 | 100 | 7.0 | 0.0 | 0.00 | 0.00 | 0.00 | 66 | 1019.0 |
| 20260504013334 | 46 | 100 | 7.0 | 0.0 | 0.00 | 0.00 | 0.00 | 66 | 1019.0 |
| 20260504011947 | 46 | 110 | 5.2 | 0.0 | 0.00 | 0.00 | 0.00 | 66 | 1019.0 |
| 20260504010329 | 46 | 110 | 5.2 | 0.0 | 0.00 | 0.00 | 0.00 | 66 | 1019.0 |
| 20260504004948 | 46 | 100 | 7.0 | 0.0 | 0.00 | 0.00 | 0.00 | 66 | 1019.0 |
| 20260504003329 | 46 | 100 | 7.0 | 0.0 | 0.00 | 0.00 | 0.00 | 66 | 1019.0 |
| 20260504001829 | 48 | 90 | 7.0 | 0.0 | 0.00 | 0.00 | 0.00 | 62 | 1019.0 |
| 20260504000329 | 48 | 90 | 7.0 | 0.0 | 0.00 | 0.00 | 0.00 | 62 | 1019.0 |
| 20260503234909 | 48 | 100 | 7.8 | 0.0 | 0.00 | 0.00 | 0.00 | 62 | 1019.0 |
| 20260503233329 | 48 | 100 | 7.8 | 0.0 | 0.00 | 0.00 | 0.00 | 62 | 1019.0 |